Flag for Canada Weather past 2 weeks in Montreal, Quebec, Canada

Now
32 °F

Passing clouds.


Feels Like: 24 °F
Forecast: 21 / 35 °F
Wind: 10 mph from West

Location: Montreal - Pierre Elliot Trudeau International Aiport

Current Time: Apr 1, 2015 at 2:36:16 PM

Latest Report: Apr 1, 2015 at 2:00 PM


Visibility: 30 mi

Pressure: 30.12 "Hg

Humidity: 34%

Dew point: 7 °F

Location of MontrealLocation

Historic Weather in Montreal — Graph

°F

Montreal temperature yesterday

Maximum temperature yesterday: 36 °F (at 4:00 PM)
Minimum temperature yesterday: 23 °F (at 8:00 AM)
Average temperature yesterday: 30 °F

Past Weeks' High & Low Weather Summary

 TemperatureHumidityPressure
High45 °F (Mar 25, 5:00 PM)100% (Mar 21, 4:00 PM)30.42 "Hg (Mar 21, 4:00 PM)
Low3 °F (Mar 23, 7:00 AM)27% (Mar 31, 4:00 PM)29.51 "Hg (Mar 30, 2:00 PM)
Average25 °F58%30.02 "Hg
* Reported Mar 17 1:00 PM — Apr 1 1:00 PM, Montreal, Weather by CustomWeather, © 2015

Note: Actual official high and low records may vary slightly from our data, if they occured in-between our weather recording intervals... More about our weather records

Advertising

Montreal weather history for previous 24 hours

 ConditionsComfort  
Time TempWeatherWind HumidityBarometerVisibility
1:00 PM
Wed, Apr 1
30 °FScattered clouds.10 mph31%30.13 "Hg30 mi
12:00 PM30 °FScattered clouds.8 mph31%30.14 "Hg30 mi
11:00 AM27 °FScattered clouds.7 mph33%30.14 "Hg30 mi
10:00 AM25 °FPartly sunny.5 mph36%30.13 "Hg30 mi
9:00 AM25 °FPartly sunny.9 mph36%30.11 "Hg30 mi
8:00 AM23 °FScattered clouds.7 mph42%30.10 "Hg30 mi
7:00 AM21 °FPassing clouds.7 mph42%30.06 "Hg30 mi
6:00 AM21 °FPassing clouds.7 mph45%30.02 "Hg15 mi
5:00 AM21 °FClear.6 mph45%29.99 "Hg15 mi
4:00 AM23 °FClear.7 mph42%29.96 "Hg15 mi
3:00 AM23 °FClear.7 mph50%29.95 "Hg15 mi
2:00 AM25 °FClear.6 mph46%29.93 "Hg15 mi
1:00 AM27 °FClear.6 mph43%29.91 "Hg15 mi
12:00 AM27 °FClear.7 mph43%29.90 "Hg15 mi
11:00 PM
Tue, Mar 31
28 °FPassing clouds.6 mph43%29.89 "Hg15 mi
10:00 PM28 °FPassing clouds.6 mph43%29.88 "Hg15 mi
9:00 PM30 °FPassing clouds.8 mph40%29.87 "Hg15 mi
8:00 PM30 °FPassing clouds.10 mph43%29.85 "Hg15 mi
7:00 PM34 °FScattered clouds.12 mph38%29.83 "Hg30 mi
6:00 PM36 °FPartly sunny.14 mph32%29.81 "Hg30 mi
5:00 PM36 °FPassing clouds.12 mph27%29.79 "Hg30 mi
4:00 PM36 °FPassing clouds.10 mph27%29.79 "Hg30 mi
3:00 PM34 °FPassing clouds.12 mph29%29.79 "Hg30 mi
2:00 PM32 °FPassing clouds.14 mph34%29.80 "Hg30 mi
Weather by CustomWeather, © 2015

See weather overviewHow to use our weather pages